Preview of NWS' New Version of Forecast
This preview is not operational and should not be used for support decisions.

Regional Weather Roundup (RWR)

Issued by National Weather Service (NWS)

                            
000
ASCA42 TJSJ 200910
RWRPR 
PUERTO RICO/U.S. VIRGIN ISLANDS HOURLY WEATHER ROUNDUP
NATIONAL WEATHER SERVICE SAN JUAN PR
500 AM AST THU JUN 20 2019

PRZ001>002-007>008-010-201000-
PUERTO RICO
  
CITY           SKY/WX    TMP DP  RH WIND       PRES   REMARKS
SAN JUAN LMM   PTCLDY    81  73  78 E7        30.08R                  
CEIBA          CLOUDY    82  75  78 E9        30.10R                  
$$

VIZ001>002-201000-
U.S. VIRGIN ISLANDS
  
CITY           SKY/WX    TMP DP  RH WIND       PRES   REMARKS
CHARLOTTE AMA  MOCLDY    82  73  74 E7        30.07R                  
CHRISTIANSTED  MOCLDY    81  73  78 E16       30.07R                  
$$

HOURLY WEATHER ROUNDUP FOR THE NEWS MEDIA
  
CITY           SKY/WX    TMP DP  RH WIND       PRES   REMARKS
ORLANDO        FAIR      75  72  90 S9        29.97S                  
NEW YORK       LGT RAIN  67  67 100 E6        29.67F VSB 1/8          
NEWARK         FOG       67  67 100 N6        29.67S VSB 1/2          
CHICAGO        LGT RAIN  58  57  97 N10       29.59S                  
HARTFORD       CLOUDY    63  60  90 CALM      29.73F                  
BOSTON         CLOUDY    63  60  90 E7        29.74F                  
DALLAS         MOCLDY    80  70  71 S9        29.77R                  
PHILADELPHIA   CLOUDY    70  67  90 NE5       29.65S                  
LOS ANGELES    CLOUDY    64  57  78 W6        29.96F                  
WASHINGTON DC  CLOUDY    73  71  93 S6        29.63S